Total_Precipitation_Accumulation
2.04 2.09 2.01 2.00 2.03 2.03 1.91 1.85 1.90 1.93 1.97 1.96 1.81 1.78 1.73 1.69 1.74 1.88 1.92 1.92 1.91 1.89 1.79 1.79 1.84 1.88 1.99 1.86 1.88 1.96 2.12 2.31 2.37 1.92 1.71 1.71 1.83 1.87 1.81 1.69 1.54 1.40 1.32
1.92 1.93 1.80 1.71 1.72 1.74 1.71 1.64 1.64 1.69 1.69 1.68 1.63 1.51 1.42 1.48 1.65 1.70 1.65 1.67 1.74 1.72 1.67 1.66 1.63 1.71 1.84 1.83 1.86 1.84 1.94 2.11 2.19 2.07 1.85 1.72 1.73 1.76 1.77 1.74 1.46 1.25 1.22
1.85 1.86 1.82 1.68 1.60 1.57 1.56 1.50 1.42 1.47 1.49 1.46 1.47 1.48 1.44 1.39 1.47 1.51 1.49 1.50 1.57 1.64 1.64 1.57 1.49 1.61 1.67 1.67 1.70 1.71 1.76 1.79 1.95 1.89 1.66 1.61 1.57 1.59 1.75 1.73 1.63 1.58 1.20
1.71 1.75 1.75 1.70 1.61 1.52 1.49 1.50 1.46 1.43 1.37 1.28 1.30 1.35 1.36 1.33 1.31 1.32 1.36 1.48 1.60 1.54 1.46 1.44 1.45 1.43 1.44 1.54 1.53 1.63 1.75 1.89 1.94 1.85 1.66 1.52 1.55 1.57 1.83 1.91 1.84 1.66 1.41
1.57 1.57 1.53 1.51 1.50 1.43 1.39 1.42 1.42 1.42 1.33 1.31 1.29 1.28 1.26 1.24 1.16 1.20 1.25 1.31 1.51 1.54 1.45 1.37 1.31 1.31 1.31 1.35 1.27 1.42 1.63 1.79 1.85 1.88 1.77 1.65 1.65 1.82 1.81 1.70 1.71 1.62 1.43
1.54 1.43 1.37 1.38 1.36 1.28 1.23 1.21 1.21 1.24 1.30 1.33 1.33 1.28 1.17 1.03 1.14 1.19 1.15 1.24 1.37 1.42 1.42 1.36 1.26 1.19 1.11 1.11 1.06 1.12 1.34 1.57 1.74 1.90 1.82 1.74 1.70 1.79 1.88 1.79 1.84 1.90 1.72
1.57 1.44 1.34 1.36 1.36 1.27 1.18 1.22 1.19 1.18 1.25 1.32 1.34 1.35 1.24 1.14 1.19 1.14 1.14 1.18 1.30 1.40 1.44 1.44 1.22 1.05 1.16 1.10 1.11 1.10 1.11 1.20 1.47 1.80 1.92 1.77 1.74 1.85 2.04 2.00 2.01 2.02 1.87
1.59 1.52 1.39 1.37 1.37 1.32 1.29 1.32 1.33 1.28 1.29 1.37 1.41 1.37 1.30 1.19 1.17 1.12 1.13 1.12 1.17 1.26 1.31 1.36 1.45 1.42 1.29 1.24 1.18 1.16 1.16 1.20 1.28 1.36 1.59 1.64 1.56 1.67 1.88 1.92 1.97 1.92 1.78
1.52 1.49 1.40 1.32 1.34 1.33 1.34 1.37 1.35 1.34 1.34 1.37 1.36 1.38 1.35 1.28 1.18 1.12 1.16 1.10 1.07 1.08 1.10 1.18 1.28 1.32 1.29 1.21 1.19 1.26 1.30 1.30 1.15 1.23 1.28 1.43 1.52 1.49 1.53 1.69 1.95 2.11 2.00
1.29 1.24 1.20 1.22 1.23 1.23 1.27 1.31 1.36 1.36 1.35 1.32 1.34 1.37 1.35 1.31 1.12 0.99 1.05 1.01 1.05 1.06 1.13 1.17 1.15 1.08 1.15 1.13 1.13 1.32 1.40 1.35 1.43 1.57 1.69 1.75 1.69 1.61 1.49 1.58 1.94 2.18 2.13
1.11 1.14 1.17 1.21 1.26 1.25 1.31 1.32 1.36 1.34 1.37 1.37 1.34 1.32 1.26 1.13 0.97 0.85 0.87 0.86 0.97 1.04 1.14 1.19 1.09 0.99 0.98 0.98 1.05 1.19 1.33 1.47 1.77 2.04 2.05 1.93 1.81 1.72 1.61 1.57 1.73 1.98 2.15
1.10 1.15 1.19 1.22 1.09 1.08 1.33 1.34 1.29 1.37 1.39 1.36 1.31 1.24 1.14 1.03 0.84 0.72 0.71 0.74 0.85 0.97 1.16 1.12 1.03 0.98 0.87 0.87 0.92 1.10 1.27 1.56 1.93 2.19 2.04 1.77 1.59 1.50 1.46 1.48 1.58 1.71 1.89
1.23 1.24 1.21 1.21 1.23 1.27 1.29 1.25 1.23 1.28 1.22 1.07 1.01 1.00 0.98 0.98 0.94 0.81 0.72 0.71 0.78 0.85 1.04 1.10 1.06 1.02 0.95 1.03 1.12 1.25 1.40 1.63 1.91 1.96 1.79 1.63 1.54 1.50 1.45 1.49 1.51 1.57 1.55
1.29 1.22 1.18 1.25 1.37 1.37 1.31 1.15 1.12 1.10 1.07 1.02 0.99 0.97 0.95 0.93 0.84 0.74 0.69 0.73 0.78 0.80 0.92 1.08 1.18 1.21 1.22 1.32 1.43 1.52 1.57 1.66 1.71 1.67 1.57 1.56 1.51 1.51 1.48 1.48 1.55 1.54 1.59
1.37 1.28 1.19 1.12 1.19 1.26 1.12 0.96 0.95 0.93 0.97 1.06 1.09 1.06 0.99 0.88 0.77 0.77 0.70 0.69 0.76 0.84 0.91 1.10 1.29 1.36 1.43 1.50 1.54 1.60 1.64 1.59 1.53 1.50 1.53 1.53 1.50 1.51 1.53 1.56 1.66 1.60 1.55
1.33 1.22 1.10 0.96 0.93 0.93 0.90 0.89 0.90 0.89 0.90 0.96 1.05 1.03 0.92 0.87 0.82 0.78 0.78 0.79 0.84 0.94 0.99 1.20 1.41 1.47 1.51 1.53 1.56 1.61 1.62 1.52 1.42 1.43 1.48 1.48 1.50 1.51 1.55 1.64 1.73 1.72 1.67
1.34 1.22 1.02 0.88 0.84 0.80 0.82 0.91 0.96 0.89 0.86 0.88 0.94 0.95 0.99 0.92 0.83 0.80 0.83 0.89 0.92 0.94 1.00 1.22 1.43 1.59 1.64 1.55 1.49 1.50 1.56 1.56 1.52 1.50 1.50 1.52 1.47 1.46 1.53 1.61 1.65 1.62 1.59
1.18 1.10 0.99 0.91 0.85 0.80 0.77 0.83 0.97 1.06 1.02 0.97 0.95 0.94 0.94 0.92 0.88 0.87 0.90 0.93 0.99 1.01 1.08 1.25 1.38 1.46 1.52 1.52 1.45 1.43 1.46 1.50 1.56 1.54 1.53 1.58 1.59 1.55 1.53 1.58 1.59 1.50 1.46
1.02 0.96 0.90 0.85 0.81 0.80 0.78 0.85 0.94 0.99 1.08 1.14 1.08 1.01 1.03 1.00 1.03 1.03 0.96 0.92 1.00 1.07 1.15 1.23 1.30 1.34 1.34 1.36 1.34 1.30 1.31 1.36 1.38 1.41 1.43 1.49 1.54 1.57 1.54 1.52 1.53 1.47 1.48
0.88 0.88 0.82 0.72 0.68 0.70 0.73 0.83 0.99 1.10 1.18 1.26 1.25 1.15 1.12 1.15 1.21 1.22 1.12 1.05 1.08 1.14 1.20 1.24 1.23 1.19 1.19 1.20 1.18 1.17 1.19 1.19 1.16 1.18 1.21 1.26 1.34 1.42 1.40 1.35 1.35 1.39 1.48
0.71 0.78 0.81 0.71 0.67 0.70 0.77 0.88 1.03 1.16 1.19 1.27 1.29 1.25 1.28 1.25 1.39 1.43 1.36 1.26 1.20 1.20 1.23 1.19 1.20 1.21 1.17 1.18 1.16 1.13 1.12 1.11 1.08 1.08 1.12 1.19 1.26 1.28 1.23 1.22 1.23 1.25 1.32
0.67 0.72 0.72 0.74 0.76 0.78 0.86 0.96 1.08 1.12 1.10 1.12 1.08 1.07 1.18 1.18 1.31 1.39 1.43 1.40 1.31 1.25 1.22 1.18 1.17 1.22 1.28 1.27 1.17 1.14 1.12 1.08 1.05 1.06 1.10 1.13 1.15 1.13 1.12 1.15 1.19 1.23 1.24
0.59 0.64 0.64 0.68 0.74 0.78 0.82 0.89 0.96 0.98 0.98 0.97 0.94 0.93 0.99 1.09 1.18 1.26 1.35 1.39 1.36 1.31 1.23 1.17 1.16 1.16 1.16 1.19 1.16 1.07 1.02 1.01 0.99 1.01 1.08 1.10 1.10 1.05 1.05 1.11 1.15 1.19 1.21
0.55 0.63 0.62 0.60 0.67 0.71 0.73 0.76 0.77 0.80 0.80 0.81 0.83 0.83 0.88 0.97 1.07 1.15 1.21 1.26 1.28 1.27 1.22 1.18 1.17 1.11 1.04 1.03 0.99 0.89 0.83 0.84 0.85 0.88 0.99 1.06 1.05 1.02 1.04 1.12 1.11 1.10 1.10
0.50 0.56 0.56 0.55 0.56 0.61 0.66 0.66 0.61 0.63 0.68 0.71 0.74 0.76 0.78 0.84 0.89 0.92 0.96 1.04 1.14 1.18 1.12 1.09 1.11 1.06 0.96 0.90 0.87 0.78 0.79 0.80 0.78 0.79 0.85 0.95 0.95 0.99 1.03 1.06 1.06 1.07 1.09
0.48 0.50 0.53 0.56 0.58 0.61 0.63 0.63 0.60 0.62 0.64 0.66 0.68 0.67 0.69 0.74 0.78 0.79 0.82 0.86 0.94 1.05 1.08 1.00 0.95 0.92 0.87 0.80 0.81 0.84 0.81 0.73 0.70 0.75 0.77 0.83 0.90 0.96 1.02 1.05 1.01 1.04 1.09